Weather History for KMHK - January, 2014

Change the Weather History Date:

Monday, January 13, 2014

  Actual Average Record
Temperature  
Mean Temperature 39 °F 28 °F  
Max Temperature 49 °F 40 °F 57 °F (2002)
Min Temperature 28 °F 16 °F -8 °F (2011)
Degree Days  
Heating Degree Days 26 37  
Month to date heating degree days 536 481  
Since 1 July heating degree days 2811 2622  
Cooling Degree Days 0 0  
Month to date cooling degree days 0 0  
Year to date cooling degree days 0 0  
Moisture  
Dew Point 29 °F    
Average Humidity 71    
Maximum Humidity 96    
Minimum Humidity 46    
Precipitation  
Precipitation 0.00 in 0.02 in 0.14 in (2001)
Month to date precipitation 0.23 0.15  
Year to date precipitation 0.23 0.15  
Sea Level Pressure  
Sea Level Pressure 29.86 in    
Wind  
Wind Speed 6 mph (West)    
Max Wind Speed 15 mph    
Max Gust Speed 19 mph    
Visibility 10 miles    
Events      
T = Trace of Precipitation, MM = Missing Value Source: NWS Daily Summary

Daily Weather History Graph

Daily Weather History Graph

Search for Another Location

Airport or City:

Trip Planner

Search our weather history database for the weather conditions in past years. The results will help you decide how hot, cold, wet, or windy it might be!

Date:

Astronomy

Jan. 13, 2014 Rise Set
Actual Time 7:45 AM CST 5:26 PM CST
Civil Twilight 7:15 AM CST 5:55 PM CST
Nautical Twilight 6:42 AM CST 6:28 PM CST
Astronomical Twilight 6:10 AM CST 7:00 PM CST
Moon 3:42 PM CST (1/13) 5:34 AM CST (1/13)
Length of Visible Light 10h 40m
Length of Day
9h 41m
Waxing Gibbous, 95% of the Moon is Illuminated
Jan 13
Waxing Gibbous
Jan 15
Full
Jan 23
Last Quarter
Jan 30
New
Feb 6
First Quarter

Hourly Weather History & Observations

Time (CST) Temp. Windchill Dew Point Humidity Pressure Visibility Wind Dir Wind Speed Gust Speed Precip Events Conditions
12:52 AM 39.9 °F 35.1 °F 35.1 °F 83% 29.73 in 10.0 mi WNW 6.9 mph - N/A   Clear
1:52 AM 33.1 °F - 32.0 °F 96% 29.75 in 10.0 mi Calm Calm - N/A   Clear
2:52 AM 37.0 °F - 33.1 °F 86% 29.78 in 10.0 mi Calm Calm - N/A   Clear
3:52 AM 37.0 °F 32.4 °F 33.1 °F 86% 29.81 in 10.0 mi West 5.8 mph - N/A   Clear
4:52 AM 39.0 °F 36.8 °F 30.0 °F 70% 29.84 in 10.0 mi Variable 3.5 mph - N/A   Mostly Cloudy
5:52 AM 37.9 °F 34.4 °F 30.0 °F 73% 29.86 in 10.0 mi WNW 4.6 mph - N/A   Partly Cloudy
6:52 AM 36.0 °F 31.1 °F 30.0 °F 79% 29.88 in 10.0 mi West 5.8 mph - N/A   Clear
7:52 AM 35.1 °F 31.0 °F 28.9 °F 78% 29.91 in 10.0 mi West 4.6 mph - N/A   Clear
8:52 AM 36.0 °F 33.3 °F 30.0 °F 79% 29.93 in 10.0 mi WSW 3.5 mph - N/A   Clear
9:52 AM 39.9 °F 35.1 °F 30.0 °F 68% 29.96 in 10.0 mi Variable 6.9 mph - N/A   Clear
10:52 AM 42.1 °F 37.1 °F 28.0 °F 58% 29.96 in 10.0 mi NW 8.1 mph - N/A   Clear
11:52 AM 44.1 °F 39.5 °F 28.0 °F 53% 29.95 in 10.0 mi NW 8.1 mph - N/A   Clear
12:52 PM 46.0 °F 42.5 °F 28.0 °F 50% 29.91 in 10.0 mi West 6.9 mph - N/A   Clear
1:52 PM 48.0 °F - 28.9 °F 48% 29.90 in 10.0 mi WSW 8.1 mph - N/A   Clear
2:52 PM 48.9 °F - 28.0 °F 44% 29.87 in 10.0 mi WSW 9.2 mph - N/A   Clear
3:52 PM 48.0 °F - 28.9 °F 48% 29.87 in 10.0 mi WSW 12.7 mph - N/A   Clear
4:52 PM 45.0 °F 41.2 °F 28.0 °F 52% 29.86 in 10.0 mi SW 6.9 mph - N/A   Clear
5:52 PM 36.0 °F - 27.0 °F 70% 29.85 in 10.0 mi Calm Calm - N/A   Clear
6:52 PM 30.9 °F - 26.1 °F 82% 29.84 in 10.0 mi Calm Calm - N/A   Clear
7:52 PM 34.0 °F 28.0 °F 27.0 °F 75% 29.83 in 10.0 mi SW 6.9 mph - N/A   Clear
8:52 PM 37.9 °F 32.7 °F 26.1 °F 62% 29.83 in 10.0 mi WSW 6.9 mph - N/A   Clear
9:52 PM 28.9 °F 23.9 °F 24.1 °F 82% 29.83 in 10.0 mi WSW 4.6 mph - N/A   Clear
10:52 PM 35.1 °F 28.6 °F 25.0 °F 67% 29.83 in 10.0 mi WSW 8.1 mph - N/A   Clear
11:52 PM 37.0 °F 28.9 °F 25.0 °F 62% 29.81 in 10.0 mi WSW 12.7 mph - N/A   Partly Cloudy